Location: Port Colborne
(42.8865°N, 79.2509°W)
Time: 05:25:02
(UTC-04:00)

OTV 5 (USA 277) - Visible Passes

Search period start: 25 August 2019 00:00
Search period end: 04 September 2019 00:00
Orbit: 305 x 329 km, 54.5° (Epoch: 20 August)

Date Brightness Start Highest point End Pass type
(mag) Time Alt. Az. Time Alt. Az. Time Alt. Az.
25 Aug ? 21:47:40 10° W 21:50:06 29° NNW 21:52:02 13° NNE visible
26 Aug ? 22:03:04 10° WNW 22:04:52 16° NNW 22:06:36 10° NNE visible
27 Aug ? 20:42:16 10° WSW 20:44:52 44° NW 20:47:29 10° NE visible
27 Aug ? 22:19:08 10° NNW 22:19:45 11° NNW 22:20:22 10° N visible
28 Aug ? 20:57:24 10° W 20:59:35 21° NNW 21:01:44 10° NNE visible
29 Aug ? 21:13:03 10° NW 21:14:25 13° NNW 21:15:45 10° N visible
01 Sep ? 20:23:15 10° NNW 20:23:58 11° NNW 20:24:41 10° N visible
